This is the latest recevied weather packets stored in our database for station/object W0BJ. If no packets are shown the sender has not sent any weather packets the latest 10 day(s).
| Time | Temp. | Humidity | Pressure | Rain* | Wind** | Luminosity | Snow |
|---|---|---|---|---|---|---|---|
| 1777703898 | 10.56° C | 70% | 1019.6 hPa | 0 mm | - | - | - |
| 1777703544 | 10.56° C | 69% | 1019.6 hPa | 0 mm | - | - | - |
| 1777702998 | 10.56° C | 69% | 1019.4 hPa | 0 mm | - | - | - |
| 1777702943 | 10.56° C | 68% | 1019.5 hPa | 0 mm | - | - | - |
| 1777702343 | 11.11° C | 67% | 1019.6 hPa | 0 mm | - | - | - |
| 1777702099 | 11.11° C | 67% | 1019.8 hPa | 0 mm | - | - | - |
| 1777701745 | 11.67° C | 66% | 1019.7 hPa | 0 mm | - | - | - |
| 1777701198 | 11.67° C | 62% | 1020.1 hPa | 0 mm | - | - | - |
| 1777701144 | 11.67° C | 61% | 1020.1 hPa | 0 mm | - | - | - |
| 1777700544 | 11.67° C | 59% | 1020 hPa | 0 mm | - | - | - |
| 1777700298 | 11.67° C | 59% | 1019.8 hPa | 0 mm | - | - | - |
| 1777699943 | 11.67° C | 59% | 1019.6 hPa | 0 mm | - | - | - |
| 1777699399 | 11.67° C | 59% | 1019.7 hPa | 0 mm | - | - | - |
| 1777699345 | 11.67° C | 59% | 1019.7 hPa | 0 mm | - | - | - |
| 1777698744 | 11.67° C | 58% | 1019.7 hPa | 0 mm | - | - | - |
| 1777698498 | 11.67° C | 57% | 1019.7 hPa | 0 mm | - | - | - |
| 1777698143 | 11.67° C | 56% | 1019.8 hPa | 0 mm | - | - | - |
| 1777697599 | 12.22° C | 56% | 1019.6 hPa | 0 mm | - | - | - |
| 1777697545 | 12.22° C | 57% | 1019.6 hPa | 0 mm | - | - | - |
| 1777696943 | 12.22° C | 56% | 1019.7 hPa | 0 mm | - | - | - |
| 1777696697 | 12.22° C | 56% | 1019.8 hPa | 0 mm | - | - | - |
| 1777696345 | 12.22° C | 56% | 1019.8 hPa | 0 mm | - | - | - |
| 1777695799 | 12.78° C | 56% | 1019.9 hPa | 0 mm | - | - | - |
| 1777695745 | 12.78° C | 57% | 1019.9 hPa | 0 mm | - | - | - |
| 1777695143 | 12.22° C | 58% | 1019.8 hPa | 0 mm | - | - | - |
* Rain latest hour (hover to see other rain measurements)
** Current wind speed in m/s (hover to see current wind gust speed)